Regional Weather Roundup
Issued by NWS

Home | Current Version | Previous Version | Text Only | Print | Product List | Glossary Off
Versions: 1 2 3 4 5 6 7 8 9 10 11 12 13 14 15 16 17 18 19 20 21 22 23 24 25 26 27 28 29 30 31 32 33 34 35 36 37 38 39 40 41 42 43 44 45 46 47 48 49 50

000
ASUS44 KMEG 281610
RWRTN
TENNESSEE HOURLY STATE WEATHER ROUNDUP
NATIONAL WEATHER SERVICE MEMPHIS TN
1100 AM CDT WED SEP 28 2016

TNZ002-004-019-021-049-052-054-088>092-281700-
WEST TENNESSEE

CITY           SKY/WX    TMP DP  RH WIND       PRES   REMARKS
MEMPHIS INTL   SUNNY     79  54  41 SW9       29.94F
NWS MEMPHIS      N/A     77 N/A N/A MISG        N/A
JACKSON        SUNNY    N/A N/A N/A SW9       29.92F
DYERSBURG      SUNNY    N/A N/A N/A MISG        N/A
UNION CITY     SUNNY     77  54  44 W10       29.87S
PARIS          SUNNY     75  52  43 W13       29.89S
HUNTINGDON     SUNNY     79  52  38 SW12      29.88F
LEXINGTON      SUNNY     75  52  43 S13       29.92F
$$

TNZ008-025-027-028-033-062-065-066-281700-
NORTH MIDDLE TENNESSEE

CITY           SKY/WX    TMP DP  RH WIND       PRES   REMARKS
NASHVILLE      MOSUNNY   75  45  34 SW9G20    29.93F
PORTLAND       MOSUNNY   72  52  49 S15       29.90F
CLARKSVILLE    MOSUNNY   75  52  44 SW12G21   29.87F
SMYRNA         SUNNY     77  48  35 SW9       29.94F
GALLATIN       MOSUNNY   73  50  43 VRB7      29.94F
CROSSVILLE     SUNNY     71  43  36 SW8       29.98F
$$

TNZ061-075-076-078-094-096-097-281700-
SOUTH MIDDLE TENNESSEE

CITY           SKY/WX    TMP DP  RH WIND       PRES   REMARKS
FAYETTEVILLE   SUNNY     73  46  38 SW6       29.98F
TULLAHOMA      SUNNY     73  43  33 SW8       29.98F
WINCHESTER     SUNNY     75  46  35 VRB5      29.98S
MCMINNVILLE    SUNNY     75  46  35 SW12      29.96F
COLUMBIA       SUNNY     75  52  43 SW12      29.94S
SHELBYVILLE    SUNNY     79  46  31 SW10      29.97F
$$

TNZ017-018-042-046-047-281700-
NORTHEAST TENNESSEE

CITY           SKY/WX    TMP DP  RH WIND       PRES   REMARKS
TRI CITIES     MOSUNNY   72  53  51 VRB5      29.97F
ELIZABETHTON   SUNNY     73  59  60 W7        29.96F
$$

TNZ012-013-036-069-073-074-281700-
CENTRAL EAST TENNESSEE

CITY           SKY/WX    TMP DP  RH WIND       PRES   REMARKS
KNOXVILLE      MOSUNNY   72  48  42 VRB3      29.96F
OAK RIDGE      SUNNY     74  45  35 VRB3      29.97F
DOWNTOWN KNOXV SUNNY     75  45  33 CALM      29.96F
GATLINBURG     SUNNY     73  45  35 NW5       29.96F
MORRISTOWN     SUNNY     73  39  29 VRB7      29.96F
JACKSBORO      SUNNY     73  46  38 VRB7      29.99F
$$

TNZ083-085-099-281700-
SOUTHEAST TENNESSEE

CITY           SKY/WX    TMP DP  RH WIND       PRES   REMARKS
CHATTANOOGA    SUNNY     75  47  36 VRB5      29.97F
$$

SKY/WX REPORTED AS FAIR MEANS FEW OR NO CLOUDS BELOW
12 THOUSAND FEET.




USA.gov is the U.S. government's official web portal to all federal, state and local government web resources and services.